Wetbulb
50.47 50.38 50.21 50.16 50.39 50.93 51.61 52.58 52.29 52.62 53.35 54.35 55.00 54.92 55.25 55.72 55.93 54.73 54.05 56.53 51.45 47.81 47.80 49.69 50.11 47.54 48.38 48.84 45.51 49.06 48.99 51.11 50.22 45.48 43.89 44.39 42.91 44.26 43.87 45.95 44.25 43.64 44.11 43.23 45.47 43.40 40.74 54.58 54.71 50.42 53.58 56.56 55.25 55.90
50.34 50.08 50.12 50.14 49.99 50.08 50.68 51.69 52.50 52.50 52.89 53.88 54.76 54.92 55.37 55.32 55.67 55.16 51.29 55.66 55.99 48.93 47.68 51.52 51.72 52.68 51.95 51.73 49.49 49.72 48.49 48.63 50.93 47.52 47.92 47.80 44.96 45.98 44.90 40.91 49.03 43.59 46.67 45.12 46.37 46.60 53.10 53.82 53.65 55.18 56.57 53.10 54.80 55.34
50.04 49.98 49.80 49.72 49.48 50.02 50.00 50.91 52.02 52.14 52.72 54.00 54.49 54.51 54.98 54.98 55.24 55.08 53.48 55.34 53.41 47.90 47.29 48.94 49.72 54.23 56.49 55.62 56.18 47.43 49.59 51.57 52.81 55.07 49.79 47.97 44.30 47.25 42.13 43.64 46.28 49.01 52.73 47.81 47.56 50.10 52.15 54.45 55.95 56.58 57.15 56.81 57.76 57.81
49.86 49.85 49.77 49.66 49.16 49.55 50.00 50.94 51.94 53.08 52.50 54.06 54.59 54.49 54.67 54.53 54.68 54.94 53.28 56.25 52.97 48.64 42.81 45.86 54.20 51.17 54.87 54.52 54.88 55.22 53.29 53.12 54.29 53.63 49.06 47.46 44.87 49.17 44.95 46.29 45.17 47.92 50.63 48.23 47.94 49.82 51.35 53.95 55.17 56.34 56.78 57.66 57.99 57.96
50.04 49.90 49.56 49.62 49.25 49.39 50.32 51.30 52.24 53.02 53.34 53.94 54.31 54.00 54.25 54.23 54.06 54.62 56.23 55.57 55.40 48.94 43.36 44.19 49.25 53.47 55.16 54.59 53.57 54.37 53.67 51.39 49.75 47.73 47.30 45.29 48.18 47.78 47.61 47.46 45.01 48.38 46.19 44.51 44.54 48.07 48.88 51.64 55.22 56.66 56.41 56.87 57.02 57.00
50.01 49.61 49.46 49.56 49.95 49.98 50.69 51.53 52.20 52.78 53.56 53.76 54.01 53.89 53.68 53.62 53.64 54.68 49.45 54.13 56.04 53.81 46.14 41.00 49.63 50.62 54.33 55.42 53.90 52.40 51.95 51.33 51.30 47.86 47.49 49.35 51.12 47.19 43.05 41.59 47.98 49.62 50.50 53.09 50.04 50.97 52.96 54.80 55.84 56.68 55.76 56.23 56.98 56.47
49.55 48.56 48.98 49.57 50.20 50.67 51.21 51.80 52.32 53.08 53.14 53.39 53.45 53.28 52.85 52.71 52.43 52.36 51.05 53.30 55.73 54.47 46.47 42.17 43.38 52.60 55.24 55.15 52.97 51.72 53.36 52.18 51.96 49.91 48.17 47.27 47.55 48.80 45.26 41.96 47.98 50.24 51.18 51.76 54.79 54.39 52.69 55.09 53.39 56.85 56.62 57.09 56.98 56.10
49.14 49.49 49.87 49.28 50.46 50.94 51.58 52.02 52.41 52.15 52.85 53.19 53.15 52.72 52.55 53.03 52.20 50.86 54.73 54.23 55.40 51.61 49.48 41.78 42.98 48.07 53.80 50.57 49.68 52.80 51.31 52.03 50.65 48.81 49.18 47.54 48.67 48.24 43.44 47.07 49.26 50.93 51.60 52.25 53.78 55.05 53.78 54.04 54.15 55.68 57.27 56.30 54.93 52.79
49.40 50.17 50.44 49.83 50.54 51.02 51.44 52.15 52.73 52.60 52.91 52.99 52.94 52.69 52.58 51.81 53.02 55.21 55.58 56.28 56.36 52.17 44.57 44.62 41.66 41.42 51.33 48.72 49.54 50.76 50.79 45.35 50.75 46.85 47.49 48.37 44.91 42.91 46.62 47.58 49.34 51.00 50.43 51.22 53.53 55.66 54.98 54.03 54.74 55.44 55.54 56.00 53.67 53.50
49.92 50.51 50.71 50.60 50.69 51.00 51.76 52.87 53.39 52.75 51.76 52.15 51.49 52.14 49.95 55.85 56.22 55.84 52.55 49.71 48.53 48.62 48.01 43.14 47.03 43.10 48.92 47.65 45.66 45.47 47.35 43.46 40.39 44.83 48.68 46.07 43.93 48.56 50.43 51.52 51.94 52.67 53.40 54.22 51.76 51.97 52.43 52.51 54.18 54.21 54.18 55.51 53.60 53.45
50.28 50.80 50.89 50.84 50.78 50.90 52.25 53.15 52.84 51.63 51.91 52.69 54.00 53.23 56.50 56.29 54.00 52.36 47.30 44.90 45.77 43.27 45.85 46.06 46.64 45.58 50.62 44.50 44.22 46.24 43.08 44.09 38.16 42.49 43.47 42.26 41.27 47.07 50.24 51.43 52.93 53.28 53.82 53.84 54.22 54.32 54.74 53.80 55.26 55.55 54.77 55.74 55.02 55.17
50.37 50.69 50.90 50.68 50.58 50.93 52.10 52.54 52.31 52.80 53.12 50.09 49.42 53.60 55.28 52.77 48.95 45.61 45.22 46.44 44.79 44.09 49.02 47.24 49.81 51.02 49.84 50.39 44.86 44.88 41.32 42.38 37.36 46.78 41.52 38.53 45.33 47.84 49.34 50.44 51.76 52.53 53.91 54.28 55.36 55.11 55.54 56.30 57.64 56.29 55.88 57.18 55.63 55.49
50.33 50.75 50.70 50.54 50.68 51.14 51.75 52.38 52.61 52.27 51.87 54.90 51.49 50.10 48.73 49.14 40.16 42.18 40.50 43.50 44.59 49.56 50.81 50.77 47.76 51.06 49.20 49.20 45.89 43.66 39.08 38.60 45.26 39.96 38.54 42.61 46.32 47.91 48.82 50.86 51.04 53.20 54.44 54.25 54.36 55.42 55.55 56.59 57.35 56.34 56.05 57.18 55.69 57.04
50.53 50.59 50.41 50.55 50.82 51.38 51.80 52.38 52.75 52.20 51.25 49.60 48.10 39.16 44.85 44.37 46.21 46.20 46.28 46.44 50.82 50.82 50.27 49.49 48.68 48.54 50.72 45.99 46.48 40.74 43.35 43.74 37.75 35.87 37.31 43.65 47.30 48.18 49.98 51.64 52.52 52.97 53.69 53.71 53.80 54.14 54.25 54.74 55.29 56.65 56.70 57.25 57.52 57.19
50.61 50.44 50.39 50.51 51.53 51.86 52.15 52.42 52.78 52.56 51.60 48.75 49.70 40.25 45.56 49.89 51.40 50.17 51.54 49.63 51.79 52.71 50.26 48.82 48.74 49.56 46.98 45.90 46.34 44.11 37.21 32.57 37.40 38.55 43.73 47.57 49.38 50.14 51.27 52.49 53.53 53.46 53.84 52.59 52.66 53.11 53.77 54.49 54.49 54.45 55.87 57.21 57.31 57.51
50.72 50.63 52.56 53.72 53.64 52.87 52.11 52.06 52.52 53.78 53.54 50.82 50.02 47.67 50.69 49.21 48.75 50.06 49.75 49.96 52.46 50.69 50.12 50.81 47.24 44.38 43.51 44.19 41.64 39.13 36.51 33.58 39.93 45.93 48.28 48.90 48.82 50.63 51.71 53.39 54.12 53.88 53.06 52.07 50.80 51.87 52.51 53.66 53.90 53.64 55.24 56.27 57.41 57.86
50.13 49.90 53.07 52.20 51.91 51.17 50.78 51.22 54.24 52.04 51.14 50.11 49.16 52.47 50.42 49.62 47.95 50.26 52.57 52.00 54.87 50.19 45.92 46.94 42.45 40.79 46.71 41.66 39.98 42.73 40.25 43.04 46.86 48.61 49.63 50.10 49.56 50.97 52.47 53.47 53.48 53.89 53.04 52.92 53.08 52.27 51.97 54.12 55.47 54.95 54.29 55.64 57.21 57.63
49.09 53.22 53.08 51.48 51.09 52.78 55.04 52.71 52.82 51.78 48.50 51.08 49.31 51.00 52.31 52.08 51.53 51.37 52.04 51.05 51.83 50.21 49.47 46.01 48.93 43.06 40.62 38.98 39.94 44.01 45.29 48.43 50.07 50.17 50.21 50.61 50.48 51.00 52.16 52.44 53.16 53.88 53.43 53.78 54.23 54.23 54.14 54.49 53.22 53.58 55.29 55.43 55.29 55.91
50.04 50.82 50.66 50.57 50.92 49.85 52.58 54.07 54.94 48.17 49.66 51.61 52.62 53.80 52.82 53.91 52.35 54.13 51.71 50.95 51.22 53.76 51.25 49.32 44.30 41.74 42.39 46.46 46.30 46.41 47.91 48.05 47.56 49.50 51.06 50.81 50.56 50.32 50.30 51.50 51.93 52.26 53.09 52.64 53.92 53.89 54.71 54.51 54.10 54.90 55.04 55.32 54.49 55.57
50.13 50.09 50.38 50.84 50.75 51.75 51.42 51.44 57.29 51.73 48.42 51.30 53.26 53.05 52.82 51.30 51.16 51.51 52.22 50.50 50.90 50.93 48.66 45.95 46.65 47.49 47.38 49.49 49.50 48.60 49.41 50.59 48.98 47.94 49.51 49.92 50.39 48.88 49.48 50.32 51.03 51.54 51.96 52.42 52.34 51.64 53.89 54.01 54.95 54.79 54.92 54.38 54.04 53.83
52.21 55.13 54.89 53.00 53.19 51.93 52.09 53.06 52.45 53.16 53.27 51.70 53.34 52.18 52.16 52.57 52.28 49.51 51.17 51.68 50.58 47.35 45.68 49.07 50.05 50.69 52.70 52.63 51.53 51.64 51.50 50.86 49.29 48.75 49.69 49.31 50.50 50.71 49.06 50.64 50.80 51.14 50.50 50.52 50.92 51.16 50.68 51.37 52.37 53.53 52.41 52.71 53.08 53.84
54.66 54.42 55.40 53.85 52.91 53.99 52.41 54.94 52.76 55.22 53.39 52.11 51.80 52.81 49.86 47.67 47.95 48.82 53.47 50.61 49.15 50.60 52.34 50.71 50.94 51.39 51.18 50.55 49.99 51.20 52.06 51.87 50.97 50.28 48.04 48.44 48.97 48.77 49.52 50.20 50.51 50.31 51.00 50.81 50.80 50.91 51.43 51.24 51.12 51.76 51.83 51.52 51.20 50.83
51.81 53.92 53.88 54.54 50.70 47.25 45.17 55.82 51.29 52.57 48.31 50.44 52.55 49.22 49.79 47.22 47.14 50.71 49.85 51.20 51.96 52.97 52.16 51.71 52.65 53.20 51.72 52.76 52.31 51.12 51.60 51.69 49.72 50.24 50.60 50.98 51.26 51.05 50.82 50.09 50.10 51.05 50.22 50.61 51.42 51.21 50.74 48.34 49.44 50.00 51.60 51.70 50.62 51.22
52.66 52.09 49.78 49.18 49.18 44.50 52.87 51.21 52.50 51.13 51.26 49.47 47.97 46.17 48.72 49.30 50.59 49.05 47.40 49.96 50.32 52.07 51.43 52.24 52.31 50.81 52.01 52.38 49.45 49.94 50.59 51.98 50.47 50.30 50.18 49.93 49.05 50.49 50.76 50.23 50.97 50.10 50.90 51.88 51.39 51.96 51.88 51.17 48.06 49.82 50.11 50.94 51.12 51.01
45.18 44.61 45.46 36.88 49.94 48.71 47.48 48.78 49.48 47.61 45.51 48.44 46.96 47.67 48.45 52.51 47.86 45.83 42.72 46.16 50.05 49.88 51.00 52.77 52.20 51.51 49.05 49.82 50.47 51.08 52.75 51.58 50.32 50.40 51.95 53.35 52.95 52.42 51.15 51.48 51.36 51.75 52.70 50.75 50.75 51.75 51.43 51.82 51.19 50.88 51.27 51.57 51.25 51.28
39.24 46.57 40.86 48.29 49.07 48.25 49.00 46.55 47.90 47.62 47.71 47.52 47.75 50.62 50.67 49.33 43.63 41.61 45.26 47.26 49.22 50.72 51.01 51.33 50.64 50.71 50.80 50.62 50.54 51.01 51.84 53.16 52.68 51.22 52.50 52.86 52.10 52.18 49.96 49.08 49.30 49.01 51.55 53.00 52.04 50.69 51.43 51.33 51.01 51.62 51.48 50.83 46.74 51.21
39.35 45.03 50.80 54.25 52.42 52.59 49.93 51.12 52.35 49.60 46.89 46.56 47.24 48.05 47.58 43.50 43.48 48.67 50.97 52.13 52.16 53.08 55.28 54.75 53.00 51.52 51.15 51.88 53.39 54.25 54.36 54.41 53.98 53.47 54.54 54.26 53.98 54.26 52.23 49.78 50.41 51.37 52.68 52.77 50.84 51.95 50.60 51.19 50.38 51.08 50.89 51.37 50.87 49.87
47.94 50.11 47.68 51.46 51.70 52.76 49.23 49.69 48.90 46.83 46.98 50.48 48.84 43.74 44.88 44.13 45.62 52.62 53.52 56.33 54.18 55.31 55.21 55.45 54.58 54.48 53.81 53.75 53.55 53.35 53.57 53.96 53.06 52.23 51.93 52.08 53.11 54.17 54.36 54.46 53.06 44.55 51.74 50.76 52.72 52.42 51.61 50.36 51.21 50.82 50.71 50.92 50.74 51.43
48.74 51.55 51.72 49.20 50.91 51.03 51.20 49.58 48.48 50.96 54.10 51.17 48.60 47.32 48.35 53.81 55.69 53.75 53.02 53.61 54.30 53.96 52.93 52.60 53.64 54.72 54.09 54.71 55.15 54.20 53.20 52.54 51.17 48.44 47.76 46.85 48.54 50.84 53.25 53.45 52.95 53.15 52.44 49.94 42.35 47.26 50.51 49.87 49.63 48.69 50.13 50.78 50.23 50.72
48.83 52.50 49.37 49.42 48.62 47.71 51.37 53.74 52.59 55.22 53.39 54.26 54.94 53.44 53.31 54.64 56.87 56.03 53.67 53.13 52.55 52.03 53.04 53.54 53.90 53.08 51.80 51.83 51.91 53.20 53.99 54.08 53.24 51.90 49.77 48.99 49.58 51.77 52.47 52.88 53.15 53.16 53.12 51.90 50.52 49.91 44.06 46.72 45.91 49.95 48.98 49.89 48.44 46.68
52.83 51.91 50.39 50.29 48.73 52.11 53.42 53.78 54.47 54.55 54.90 52.77 53.71 51.45 49.56 51.56 54.68 56.23 55.59 55.15 53.95 53.89 53.19 52.25 52.08 52.92 53.21 52.59 52.51 51.28 51.06 53.94 53.82 53.70 52.80 52.26 52.22 52.97 53.05 52.93 53.41 53.60 53.10 52.33 51.73 50.42 49.30 49.30 49.43 50.09 49.56 49.33 49.47 47.92
50.73 50.50 49.20 47.97 49.46 52.92 54.59 52.08 52.23 52.58 52.35 52.93 52.83 52.00 53.68 51.67 50.15 54.91 56.03 55.43 53.96 52.43 51.63 52.60 53.36 53.81 55.37 54.56 55.50 55.62 48.20 54.22 54.23 54.52 56.12 53.82 53.25 54.03 53.84 53.18 53.14 53.16 52.41 51.50 51.44 50.81 50.46 50.36 49.89 50.20 49.86 49.66 49.22 50.24
52.68 51.02 49.80 49.99 49.88 50.42 51.94 52.90 51.76 51.41 52.16 51.64 51.79 52.71 52.62 51.36 49.98 55.90 56.56 56.39 55.03 53.37 53.59 54.43 55.07 56.56 57.38 56.15 55.72 54.36 50.91 55.83 49.22 41.35 41.01 42.19 43.36 47.33 52.34 53.38 52.93 52.70 52.75 52.05 51.96 50.92 51.75 51.83 50.34 51.02 51.58 50.55 51.08 49.77
MSLP
1024.98 1024.65 1024.29 1024.03 1023.69 1023.35 1023.09 1022.86 1022.53 1022.33 1022.00 1021.63 1021.04 1020.76 1020.46 1019.86 1019.49 1019.29 1018.59 1018.29 1018.41 1017.86 1015.99 1015.19 1014.85 1014.29 1013.20 1012.28 1011.59 1010.59 1009.57 1009.05 1008.70 1008.83 1009.02 1008.89 1007.97 1007.47 1006.78 1006.18 1005.79 1006.06 1006.16 1006.16 1006.20 1006.38 1005.50 1004.70 1003.20 1003.96 1004.23 1001.81 1000.49 1000.67
1024.89 1024.46 1024.05 1023.82 1023.66 1023.15 1022.90 1022.70 1022.29 1022.18 1021.80 1021.51 1020.84 1020.63 1020.38 1019.74 1019.57 1019.34 1019.03 1018.42 1018.46 1018.62 1016.61 1015.43 1014.63 1013.96 1013.60 1012.99 1012.37 1011.50 1011.18 1010.65 1010.59 1010.81 1010.76 1010.29 1009.13 1008.29 1007.67 1006.70 1006.13 1006.40 1006.67 1007.19 1007.65 1007.24 1005.79 1005.76 1005.95 1004.66 1004.62 1004.48 1003.96 1003.57
1024.60 1024.36 1023.85 1023.59 1023.28 1023.08 1022.71 1022.40 1022.08 1021.89 1021.42 1021.15 1020.81 1020.50 1019.97 1019.83 1019.63 1019.54 1019.02 1018.63 1018.65 1018.23 1016.42 1014.59 1012.95 1012.07 1011.47 1011.62 1011.39 1011.34 1010.89 1010.55 1010.82 1011.05 1011.87 1011.60 1010.72 1009.53 1008.70 1007.71 1007.22 1007.31 1007.61 1008.06 1008.16 1007.03 1007.25 1006.20 1006.08 1005.19 1004.84 1005.10 1004.65 1004.70
1024.22 1023.93 1023.55 1023.15 1023.18 1022.80 1022.41 1022.08 1021.81 1021.39 1021.16 1020.87 1020.49 1020.26 1019.94 1019.74 1019.47 1019.29 1019.02 1018.66 1018.83 1018.65 1017.47 1014.36 1012.47 1012.12 1011.65 1011.41 1010.99 1010.49 1010.29 1010.38 1010.85 1011.35 1011.97 1011.94 1011.36 1010.02 1009.30 1008.60 1008.13 1007.81 1007.97 1007.34 1008.24 1008.12 1007.75 1006.85 1007.02 1006.23 1005.84 1005.55 1005.41 1005.18
1023.84 1023.59 1023.18 1023.00 1022.85 1022.42 1021.94 1021.72 1021.42 1021.18 1020.76 1020.33 1020.28 1020.02 1019.82 1019.51 1019.20 1018.88 1018.56 1018.48 1018.65 1019.09 1017.87 1015.50 1013.42 1011.45 1010.48 1010.37 1010.58 1010.29 1010.28 1010.32 1010.93 1011.61 1011.86 1011.94 1010.83 1010.36 1009.59 1008.98 1008.02 1007.65 1007.34 1007.28 1007.59 1008.11 1008.06 1007.46 1007.10 1006.74 1006.55 1006.02 1006.04 1005.74
1023.53 1023.18 1022.89 1022.69 1022.29 1022.01 1021.70 1021.47 1021.04 1020.57 1020.28 1020.16 1019.90 1019.75 1019.54 1019.29 1019.12 1018.78 1018.36 1018.12 1018.25 1018.75 1018.31 1016.43 1013.77 1011.54 1010.46 1009.97 1010.14 1010.29 1010.36 1010.74 1011.14 1011.40 1011.33 1010.86 1010.09 1010.34 1009.75 1008.66 1007.67 1007.06 1006.66 1006.67 1007.10 1007.42 1007.18 1006.61 1006.61 1006.31 1006.35 1005.72 1005.36 1006.01
1023.13 1022.84 1022.57 1022.41 1022.05 1021.61 1021.21 1020.82 1020.48 1020.20 1019.95 1019.75 1019.50 1019.27 1019.11 1019.00 1018.88 1018.17 1018.01 1017.90 1017.89 1018.56 1018.23 1016.57 1013.98 1011.20 1010.66 1010.45 1010.28 1010.66 1010.69 1011.02 1011.33 1011.42 1011.11 1010.64 1010.24 1010.03 1009.30 1008.43 1007.52 1007.28 1006.87 1006.44 1006.33 1006.62 1006.73 1006.16 1005.61 1005.49 1005.88 1005.70 1006.15 1006.72
1022.80 1022.51 1022.20 1021.90 1021.56 1021.11 1020.72 1020.37 1020.01 1019.72 1019.49 1019.23 1018.98 1018.75 1018.59 1018.42 1018.36 1017.65 1016.71 1017.57 1017.71 1017.96 1017.87 1016.77 1013.98 1011.61 1011.23 1011.09 1011.27 1011.36 1011.33 1011.36 1011.40 1011.31 1010.63 1010.01 1009.60 1009.23 1008.28 1007.06 1006.89 1006.55 1006.08 1005.76 1005.69 1005.51 1005.34 1005.08 1004.95 1004.89 1004.78 1005.31 1005.96 1006.15
1022.36 1022.10 1021.72 1021.32 1021.03 1020.68 1020.29 1019.90 1019.53 1019.20 1018.89 1018.67 1018.40 1018.17 1017.97 1017.87 1017.13 1016.70 1016.93 1017.27 1017.37 1017.90 1017.30 1016.29 1014.52 1012.65 1012.01 1012.05 1012.15 1011.99 1012.16 1011.80 1011.30 1011.04 1010.22 1009.93 1009.01 1008.18 1007.23 1006.72 1006.37 1005.89 1005.55 1005.08 1005.01 1004.80 1004.65 1004.68 1004.54 1004.20 1004.07 1004.76 1005.62 1006.04
1021.88 1021.56 1021.24 1020.89 1020.59 1020.26 1019.89 1019.47 1018.97 1018.50 1018.01 1018.02 1018.05 1017.52 1016.79 1016.33 1016.46 1016.89 1017.34 1017.24 1017.40 1017.28 1016.99 1015.69 1014.13 1013.15 1012.63 1012.78 1012.90 1013.12 1012.79 1012.51 1011.90 1010.90 1010.17 1009.40 1008.52 1007.83 1007.49 1006.94 1006.19 1005.63 1004.91 1004.59 1004.51 1004.61 1004.19 1004.28 1004.25 1004.26 1004.47 1004.60 1005.15 1005.63
1021.45 1021.10 1020.78 1020.49 1020.21 1019.90 1019.49 1019.04 1018.59 1017.99 1016.50 1017.20 1016.93 1016.56 1016.18 1016.34 1016.36 1016.19 1016.21 1016.52 1016.32 1016.04 1015.30 1013.79 1012.91 1012.35 1012.55 1013.10 1013.28 1013.60 1013.27 1012.75 1012.25 1011.12 1010.54 1009.44 1009.07 1008.91 1008.44 1007.71 1006.80 1006.13 1005.36 1004.70 1004.22 1004.21 1003.93 1004.07 1004.27 1004.43 1004.58 1004.60 1004.84 1004.67
1020.96 1020.63 1020.34 1020.07 1019.84 1019.51 1019.12 1018.80 1018.45 1017.68 1017.37 1017.85 1017.94 1016.72 1015.93 1015.95 1015.77 1015.49 1014.78 1014.66 1014.34 1013.32 1012.35 1011.87 1011.52 1011.79 1012.62 1013.03 1013.41 1013.56 1013.47 1013.01 1012.10 1011.56 1011.18 1009.99 1009.39 1009.12 1008.65 1007.84 1006.90 1006.18 1005.60 1004.85 1004.26 1004.35 1004.13 1003.99 1003.78 1004.04 1003.87 1003.96 1004.25 1004.75
1020.45 1020.12 1019.80 1019.54 1019.31 1019.02 1018.77 1018.57 1018.33 1018.09 1017.49 1016.54 1017.27 1016.16 1015.50 1014.78 1014.43 1013.50 1012.32 1011.83 1011.30 1010.50 1010.02 1010.13 1010.57 1010.98 1012.24 1012.79 1013.16 1013.41 1013.21 1012.55 1012.23 1011.73 1011.05 1010.37 1009.78 1009.27 1008.66 1007.85 1006.90 1006.02 1005.34 1004.77 1004.53 1004.31 1004.25 1004.14 1003.77 1003.64 1003.63 1003.43 1004.19 1004.34
1019.94 1019.55 1019.19 1018.89 1018.58 1018.35 1018.28 1018.17 1018.04 1017.73 1017.37 1016.33 1015.67 1015.11 1014.12 1012.69 1011.54 1010.59 1010.21 1009.33 1008.38 1008.49 1008.51 1008.60 1009.06 1009.87 1010.89 1012.03 1012.23 1012.59 1012.26 1012.14 1011.81 1011.41 1010.97 1010.40 1009.95 1009.29 1008.52 1007.69 1006.86 1005.91 1005.48 1005.19 1004.70 1004.32 1004.09 1004.20 1003.95 1003.77 1004.00 1004.11 1004.25 1004.68
1019.38 1018.91 1018.51 1017.93 1017.10 1017.25 1017.53 1017.69 1017.76 1017.49 1016.49 1015.28 1014.26 1013.05 1011.27 1009.88 1009.21 1009.13 1009.05 1008.62 1007.97 1007.86 1007.99 1008.27 1008.43 1009.00 1009.93 1010.78 1011.20 1011.70 1012.43 1012.15 1011.36 1010.96 1010.67 1010.41 1010.13 1009.31 1008.37 1007.56 1006.69 1005.90 1005.49 1005.53 1005.35 1005.00 1004.33 1004.05 1004.28 1004.36 1004.19 1004.08 1004.44 1004.70
1018.94 1018.08 1017.11 1017.13 1017.18 1017.24 1017.28 1017.27 1017.13 1016.57 1015.06 1014.15 1012.88 1010.99 1009.53 1009.18 1008.83 1008.40 1008.14 1008.07 1007.74 1007.72 1007.69 1007.94 1008.30 1008.78 1009.40 1010.07 1010.87 1011.65 1012.06 1011.91 1011.27 1010.63 1010.52 1010.59 1010.29 1009.51 1008.61 1007.79 1006.65 1006.37 1006.32 1006.41 1006.07 1005.52 1004.89 1004.85 1005.11 1005.29 1005.26 1004.92 1005.22 1005.49
1018.78 1017.84 1017.24 1017.30 1017.19 1016.63 1016.66 1016.99 1015.58 1014.89 1013.52 1012.10 1010.52 1009.58 1009.48 1009.10 1008.65 1007.91 1007.72 1007.91 1007.64 1007.77 1007.93 1008.18 1008.82 1009.01 1009.27 1010.08 1010.92 1011.55 1011.44 1010.81 1010.47 1010.31 1010.42 1010.65 1010.51 1009.97 1009.12 1008.29 1007.38 1007.02 1006.97 1006.99 1006.67 1006.23 1005.83 1005.73 1005.66 1005.74 1005.93 1005.81 1006.00 1006.08
1018.09 1016.93 1017.04 1017.08 1016.80 1015.79 1015.12 1015.49 1013.88 1012.67 1011.61 1010.27 1009.34 1008.62 1008.36 1008.03 1007.83 1008.08 1008.60 1008.63 1008.77 1008.06 1008.12 1008.20 1008.57 1009.34 1009.95 1010.29 1011.19 1011.63 1011.27 1010.45 1010.20 1010.16 1010.36 1010.63 1010.63 1010.21 1009.61 1008.85 1008.23 1007.82 1007.69 1007.48 1007.53 1007.32 1007.25 1007.09 1006.76 1006.93 1006.94 1007.15 1007.41 1007.60
1017.71 1017.29 1017.02 1017.12 1017.46 1016.88 1014.31 1013.39 1012.70 1011.52 1009.96 1009.02 1008.46 1007.94 1007.82 1007.48 1008.37 1008.71 1008.93 1008.78 1008.75 1008.43 1008.22 1008.21 1008.94 1009.65 1010.16 1010.30 1010.47 1010.48 1010.33 1010.17 1010.08 1010.10 1010.28 1010.56 1010.75 1010.56 1010.09 1009.52 1009.02 1008.58 1008.38 1008.22 1008.02 1008.02 1008.34 1008.55 1008.68 1008.24 1007.99 1008.00 1007.94 1007.82
1017.25 1016.74 1016.34 1016.55 1017.25 1015.80 1013.43 1011.83 1011.08 1010.50 1009.17 1008.11 1007.67 1007.30 1007.56 1008.36 1008.47 1009.18 1010.09 1009.97 1009.51 1008.55 1008.02 1008.43 1008.73 1009.07 1009.62 1009.86 1009.92 1010.06 1010.07 1010.09 1010.06 1010.11 1010.25 1010.58 1010.85 1010.69 1010.44 1010.12 1009.68 1009.25 1009.01 1008.98 1008.98 1008.99 1009.06 1009.34 1009.33 1009.33 1009.10 1009.05 1009.08 1008.96
1016.01 1014.85 1014.95 1015.63 1015.74 1015.00 1013.05 1011.06 1010.35 1009.47 1008.35 1007.80 1007.22 1007.21 1007.27 1007.96 1008.35 1008.68 1009.32 1009.08 1008.82 1008.53 1008.55 1008.48 1009.10 1009.58 1009.71 1009.81 1009.98 1009.98 1010.16 1010.10 1010.23 1010.31 1010.45 1010.59 1010.85 1010.81 1010.39 1010.04 1009.76 1009.51 1009.45 1009.54 1009.47 1009.61 1009.58 1009.55 1009.56 1009.37 1009.33 1009.30 1009.27 1009.16
1015.10 1014.72 1014.58 1014.86 1013.88 1012.90 1012.04 1010.42 1009.43 1008.44 1008.23 1007.41 1006.99 1006.91 1007.19 1008.17 1008.47 1008.29 1007.46 1007.91 1008.18 1007.91 1007.84 1008.42 1008.90 1009.41 1009.75 1010.07 1010.25 1010.27 1010.33 1010.34 1010.38 1010.49 1010.61 1010.72 1010.83 1010.84 1010.59 1010.36 1010.02 1009.88 1009.65 1009.66 1009.81 1010.02 1010.01 1009.89 1009.75 1009.82 1009.97 1010.22 1010.16 1010.19
1015.42 1014.58 1014.01 1013.23 1012.89 1011.96 1010.73 1009.26 1008.76 1008.05 1007.64 1006.64 1006.01 1006.48 1006.90 1007.76 1008.45 1008.09 1007.17 1007.22 1007.44 1007.64 1008.09 1008.73 1009.22 1009.43 1009.74 1009.84 1009.98 1010.21 1010.36 1010.35 1010.49 1010.56 1010.54 1010.53 1010.47 1010.48 1010.47 1010.24 1010.14 1010.11 1009.78 1009.66 1009.61 1009.72 1009.94 1009.99 1009.96 1009.99 1010.17 1010.40 1010.62 1010.77
1014.88 1014.22 1013.19 1012.54 1012.01 1010.91 1009.21 1008.44 1007.72 1006.87 1006.35 1006.14 1006.17 1006.17 1006.29 1006.98 1007.31 1007.84 1007.46 1007.44 1007.54 1007.89 1008.22 1008.70 1008.92 1009.22 1009.31 1009.39 1009.65 1010.07 1010.34 1010.22 1010.08 1010.05 1010.13 1010.15 1010.08 1010.04 1009.95 1009.82 1009.73 1009.83 1009.84 1009.71 1009.78 1009.65 1009.64 1009.82 1009.85 1010.02 1010.08 1010.23 1010.46 1011.04
1014.58 1013.63 1012.73 1011.83 1010.61 1009.62 1008.52 1007.24 1006.64 1007.34 1006.42 1005.69 1005.32 1005.04 1005.24 1005.46 1005.89 1007.19 1008.70 1008.59 1007.57 1007.56 1007.90 1008.13 1008.39 1008.48 1008.84 1008.98 1009.40 1009.58 1009.74 1009.65 1009.64 1009.49 1009.54 1009.66 1009.80 1009.76 1009.66 1009.59 1009.63 1009.42 1009.45 1009.72 1009.85 1009.79 1009.63 1009.60 1009.71 1009.87 1009.99 1010.24 1010.40 1010.65
1013.34 1011.77 1010.99 1009.24 1008.45 1007.91 1007.12 1006.53 1005.68 1005.84 1005.55 1005.34 1005.70 1005.70 1005.04 1005.19 1006.88 1008.01 1008.82 1008.22 1007.53 1006.92 1006.98 1007.24 1007.64 1007.78 1008.07 1008.42 1008.54 1008.94 1009.15 1009.19 1009.27 1009.03 1008.94 1009.15 1009.12 1009.16 1009.24 1009.28 1009.30 1009.93 1009.45 1009.34 1009.52 1009.45 1009.51 1009.57 1009.70 1009.86 1010.11 1010.34 1010.63 1010.85
1011.79 1009.88 1008.50 1007.81 1007.13 1006.79 1006.61 1006.05 1005.41 1005.09 1004.93 1004.65 1004.98 1004.70 1004.61 1004.83 1005.81 1006.53 1006.86 1006.86 1006.45 1006.11 1006.14 1006.27 1006.64 1007.04 1007.16 1007.41 1007.69 1007.72 1008.28 1008.46 1008.46 1008.33 1008.17 1008.46 1008.40 1008.37 1008.67 1008.78 1009.03 1009.08 1009.12 1009.54 1009.94 1009.74 1009.75 1009.56 1009.96 1010.12 1010.30 1010.41 1010.64 1011.13
1009.81 1008.08 1006.93 1006.47 1006.11 1006.06 1005.91 1005.48 1005.17 1005.45 1005.91 1004.91 1005.44 1006.45 1005.22 1004.18 1004.65 1005.05 1005.26 1005.24 1005.56 1005.85 1005.93 1005.98 1006.45 1006.54 1006.58 1006.88 1006.96 1007.22 1007.55 1008.00 1008.36 1008.17 1008.20 1008.55 1008.09 1008.03 1008.27 1008.37 1008.64 1008.93 1009.09 1009.07 1009.11 1009.30 1009.37 1009.28 1009.39 1009.79 1010.01 1010.16 1011.10 1011.62
1007.97 1006.70 1006.24 1005.79 1005.42 1005.22 1005.09 1005.15 1005.55 1004.72 1004.28 1004.52 1004.74 1005.14 1005.04 1004.63 1004.28 1004.28 1004.74 1005.14 1005.48 1005.75 1005.78 1005.86 1006.05 1006.07 1006.31 1006.53 1006.57 1006.69 1007.20 1007.60 1008.12 1008.66 1008.83 1008.91 1008.79 1008.40 1008.26 1008.31 1008.71 1008.75 1009.15 1009.44 1009.46 1009.55 1009.55 1009.69 1009.80 1009.80 1009.94 1010.60 1011.42 1011.77
1006.36 1005.83 1005.39 1005.05 1004.77 1004.66 1004.61 1004.71 1004.60 1004.26 1004.30 1004.18 1004.30 1005.29 1005.68 1005.05 1004.49 1004.31 1004.59 1004.89 1005.20 1005.23 1005.19 1005.33 1005.48 1005.64 1005.71 1005.95 1006.12 1006.35 1006.68 1007.04 1007.32 1007.49 1007.66 1007.82 1007.76 1007.88 1008.09 1008.17 1008.59 1008.75 1008.83 1009.10 1009.45 1009.59 1009.63 1009.73 1009.82 1009.61 1009.98 1010.94 1011.85 1012.09
1005.05 1004.74 1004.65 1004.47 1004.34 1004.51 1004.69 1004.97 1004.32 1004.43 1004.20 1004.40 1004.36 1005.69 1006.54 1006.51 1004.55 1004.22 1004.29 1004.47 1004.64 1004.61 1004.72 1004.79 1004.84 1004.91 1005.15 1005.56 1006.04 1006.32 1006.58 1006.60 1006.90 1007.12 1007.39 1007.36 1007.66 1007.96 1008.03 1008.16 1008.48 1008.68 1008.68 1008.86 1009.03 1009.18 1009.40 1009.40 1009.56 1009.70 1010.01 1010.34 1010.72 1011.69
1004.60 1004.45 1004.32 1004.30 1004.41 1004.95 1004.81 1004.88 1004.63 1004.40 1004.17 1003.63 1004.06 1005.18 1005.61 1005.46 1004.88 1004.18 1003.79 1004.04 1004.22 1004.27 1004.30 1004.34 1004.28 1004.27 1004.40 1005.11 1005.43 1005.78 1006.09 1006.23 1006.59 1006.94 1006.96 1007.22 1007.58 1007.78 1007.94 1008.10 1008.31 1008.47 1008.59 1008.70 1008.74 1008.89 1009.14 1009.31 1009.53 1009.71 1010.00 1010.19 1010.39 1010.74
1004.72 1004.58 1004.88 1004.42 1004.04 1004.05 1004.04 1004.31 1004.72 1004.34 1003.91 1003.90 1004.23 1004.10 1003.91 1004.44 1004.17 1003.39 1003.35 1003.50 1003.74 1003.77 1003.84 1003.99 1004.09 1004.13 1004.48 1004.81 1005.15 1005.46 1005.62 1005.81 1006.38 1006.87 1007.16 1007.43 1007.65 1007.81 1007.99 1008.06 1008.22 1008.35 1008.44 1008.54 1008.66 1008.80 1008.89 1008.95 1009.30 1009.38 1009.57 1009.62 1009.65 1010.00
Wind_Speed
12 12 12 13 13 13 14 14 14 15 16 16 16 16 16 15 12 4 3 2 1 3 11 11 14 13 13 9 6 13 9 7 5 4 3 5 4 5 10 10 8 9 6 5 2 3 14 17 10 4 7 13 6 8
13 13 13 13 14 13 14 14 13 15 15 16 16 15 14 14 12 2 2 3 2 2 8 15 17 19 18 17 10 7 8 7 2 3 5 5 5 4 7 8 7 6 2 3 4 4 13 12 10 8 2 2 9 19
13 13 12 13 14 14 14 14 13 15 15 15 15 15 13 12 9 4 2 2 1 3 7 5 9 11 9 15 13 8 8 4 0 4 1 3 5 4 4 5 6 4 2 2 3 5 13 14 6 9 15 14 10 10
13 13 13 13 15 14 14 14 13 13 15 13 14 14 13 11 8 4 2 1 1 2 4 7 12 15 18 16 16 14 9 6 2 3 2 3 3 5 5 6 8 4 2 6 5 3 12 7 14 8 14 16 15 12
13 12 13 13 15 15 14 14 14 14 14 13 14 13 12 11 9 5 3 3 2 1 4 8 19 7 12 11 13 12 9 3 1 2 3 4 3 4 6 9 10 4 7 3 5 6 6 8 4 4 10 6 10 10
13 12 13 14 14 15 14 14 15 15 14 14 14 13 11 10 7 2 2 3 4 3 3 5 7 10 9 4 3 6 4 3 2 2 2 4 8 4 4 5 4 9 8 1 6 9 7 12 10 7 5 3 6 7
12 13 14 14 15 15 15 15 15 15 14 14 13 12 11 9 4 3 3 2 7 3 2 5 5 2 7 3 1 1 1 1 1 1 3 4 8 7 7 14 14 12 14 15 5 9 7 14 9 7 7 3 3 7
12 13 13 14 15 16 16 15 15 17 16 14 13 12 11 8 7 5 4 8 7 2 2 3 5 3 5 2 3 2 2 1 2 3 3 4 4 4 7 8 9 12 12 12 7 14 8 8 8 8 6 4 6 4
13 14 14 14 15 16 16 16 16 16 15 14 13 13 3 3 3 2 10 8 2 0 2 3 4 4 4 3 3 2 2 3 1 2 3 1 4 7 6 8 9 12 10 9 10 6 8 8 11 10 12 6 6 6
15 15 14 13 15 15 16 16 15 16 17 12 5 4 3 2 14 11 2 2 2 2 2 4 4 5 1 2 2 3 1 2 2 3 3 3 5 11 10 14 13 9 5 6 5 5 3 7 6 4 2 8 5 4
16 15 14 13 14 15 15 14 15 16 12 4 2 1 2 9 3 3 3 3 3 3 5 6 8 6 1 2 2 1 3 2 3 2 3 2 2 6 11 14 12 13 12 10 6 8 3 2 4 3 3 8 8 8
16 15 14 13 14 15 13 13 13 8 4 4 4 5 3 4 2 4 3 3 5 5 5 4 4 2 2 2 1 2 2 1 4 2 2 3 2 7 8 12 14 13 14 15 4 5 5 3 4 4 4 7 8 4
17 15 14 14 15 15 13 12 10 10 11 2 3 3 2 3 3 6 6 5 5 5 5 6 5 5 4 3 2 2 4 4 1 2 2 3 5 9 11 10 13 14 15 12 6 5 6 3 4 6 5 10 12 8
17 15 15 16 17 15 13 11 9 7 3 3 3 4 6 6 6 6 1 7 2 3 3 3 0 4 4 4 2 4 3 2 2 2 3 3 6 10 11 10 11 12 7 5 3 5 6 9 9 5 2 7 12 13
16 15 17 21 17 15 12 9 6 3 4 4 4 5 7 8 2 4 3 4 1 2 2 3 3 4 3 4 4 0 3 2 4 2 2 5 10 10 10 12 12 9 6 3 5 4 5 5 4 4 3 5 8 8
14 19 6 5 2 1 4 6 4 4 4 4 7 7 8 8 6 3 6 2 4 4 4 1 2 3 2 1 2 3 2 2 4 3 3 5 9 11 9 12 10 10 7 4 5 7 6 7 6 2 4 6 7 7
12 5 6 6 10 14 10 4 5 6 5 5 6 7 4 7 6 6 1 2 2 3 3 2 2 3 0 1 2 2 2 3 2 3 3 3 7 10 10 10 12 7 5 4 3 2 1 1 2 7 8 5 7 7
6 4 5 13 15 8 6 6 5 6 8 6 7 7 5 6 3 6 4 3 7 3 2 3 2 1 4 3 2 3 7 1 1 1 3 3 5 7 8 10 10 8 4 3 3 3 5 4 7 4 5 6 6 4
11 11 19 17 8 5 5 6 4 5 6 7 7 6 10 2 1 1 2 3 4 7 3 0 1 2 4 2 3 4 2 2 2 2 3 3 4 5 7 8 8 9 9 10 6 4 8 10 6 5 5 5 3 4
18 22 22 17 5 5 5 4 4 4 5 4 8 5 3 4 3 4 3 4 5 5 1 2 2 3 3 1 2 3 3 2 3 3 2 3 2 4 5 5 5 6 5 6 8 7 5 7 1 3 3 3 3 3
8 4 4 9 7 7 6 4 4 4 5 5 7 6 2 3 3 4 5 6 3 1 4 3 5 4 5 3 3 3 3 4 3 3 2 1 1 2 3 4 3 3 3 4 5 5 6 3 4 3 6 6 6 5
2 3 2 5 5 5 6 6 4 3 3 7 9 5 4 7 5 5 5 4 3 3 1 5 5 6 4 4 3 3 3 3 4 1 1 3 2 1 2 3 5 5 3 3 4 3 2 2 4 4 5 4 6 7
11 4 4 4 4 3 8 4 4 4 5 4 2 5 2 2 2 5 3 3 2 6 8 7 6 6 5 4 5 5 3 2 2 1 2 2 1 0 1 3 2 3 3 2 2 3 3 3 2 1 4 5 3 3
3 4 3 3 6 5 5 3 5 5 4 6 6 3 4 4 5 6 2 2 5 8 7 8 6 4 3 4 5 5 3 2 3 4 3 4 2 1 3 2 2 2 2 2 3 2 3 2 0 3 1 1 3 6
3 5 4 6 5 5 5 5 7 6 7 9 3 4 5 4 4 6 5 7 3 7 6 6 3 4 5 5 4 3 5 5 2 2 4 3 1 2 3 3 3 4 3 3 0 2 2 3 3 4 2 4 4 5
4 6 5 6 5 4 4 4 2 7 5 3 8 7 2 1 6 5 3 4 4 6 5 7 7 4 4 6 5 6 5 4 4 3 4 4 4 2 2 1 1 2 4 2 5 3 2 4 4 4 5 4 3 3
5 7 8 6 5 3 4 6 7 5 5 3 3 3 1 2 4 4 3 6 4 4 3 4 6 7 5 5 5 4 8 6 5 4 2 6 6 3 4 4 4 3 5 6 5 5 5 2 5 4 4 2 4 7
7 7 8 7 7 5 8 7 4 6 4 3 4 3 9 4 4 5 4 3 6 4 3 1 5 1 3 4 4 4 6 5 7 7 6 6 7 4 6 4 5 6 4 5 4 5 4 8 6 5 3 1 7 4
6 6 7 10 7 4 5 3 2 4 3 2 3 4 2 3 4 5 7 7 6 4 4 4 3 4 4 4 3 4 7 4 5 5 4 5 6 3 3 3 4 2 3 4 8 6 5 4 3 3 6 10 8 7
10 8 8 10 11 7 5 1 4 7 6 8 3 3 4 2 1 4 6 6 5 6 5 6 6 6 6 6 2 2 8 5 5 6 8 7 2 4 3 3 5 4 1 4 5 4 4 4 2 1 3 9 10 6
5 5 10 9 8 0 3 1 10 5 6 6 6 4 4 6 1 3 4 6 5 4 4 5 5 6 5 4 6 4 6 4 7 5 5 7 7 4 3 4 5 3 1 3 0 4 4 2 3 2 6 5 7 13
5 7 6 7 4 4 4 3 3 1 11 5 6 4 4 4 4 3 4 4 4 5 5 3 4 3 4 8 5 4 4 6 6 4 4 5 6 5 4 4 4 4 4 5 4 4 4 6 3 4 5 4 6 6
4 3 5 9 6 6 6 1 5 5 1 3 4 6 4 8 3 2 6 6 5 5 5 4 4 4 6 7 7 5 3 5 11 13 14 12 9 6 5 2 5 3 2 2 1 5 2 3 7 4 2 4 3 8
Wind_Direction
326 329 332 330 332 335 333 332 332 332 331 333 339 339 340 345 351 331 313 353 312 268 293 278 323 318 327 340 341 334 334 18 339 339 259 242 263 279 286 277 250 260 267 264 188 207 259 9 26 11 304 295 8 321
319 327 330 329 327 332 329 322 323 325 327 327 335 334 335 345 346 320 285 292 98 224 276 308 285 264 254 264 294 306 292 313 248 350 2 332 332 326 304 285 316 309 189 164 164 273 314 308 288 314 311 324 0 355
316 318 326 325 327 326 326 318 317 317 323 323 326 328 336 337 331 250 275 290 7 278 278 260 276 301 246 231 245 258 277 289 100 133 346 281 272 326 297 308 339 11 87 135 47 349 275 298 302 307 3 337 338 0
313 318 323 328 318 319 319 314 311 314 317 313 321 324 324 325 324 256 235 31 75 282 287 281 332 320 307 300 295 294 280 252 171 115 187 239 260 293 291 303 303 313 138 196 210 314 328 6 19 0 306 317 340 342
310 313 321 319 314 316 317 316 312 309 310 317 314 317 311 315 316 277 220 211 177 257 291 302 299 271 265 216 246 254 295 296 335 238 166 228 246 254 273 278 273 277 279 272 241 200 193 256 294 277 243 253 325 327
310 319 318 314 314 312 310 304 309 312 310 306 306 304 303 307 308 272 283 184 190 155 294 301 326 281 313 275 267 302 242 275 204 261 241 253 223 237 258 269 281 300 304 86 192 221 215 244 251 258 268 290 14 347
312 319 312 308 307 309 308 308 308 305 303 300 298 300 300 300 246 236 341 64 139 136 259 289 276 198 354 2 200 355 322 237 172 275 240 248 260 281 262 264 265 289 294 293 208 204 229 234 253 209 216 154 189 86
306 302 303 311 308 311 309 307 305 304 297 295 296 292 293 292 260 277 181 174 154 210 209 277 275 272 13 11 318 356 319 245 188 221 250 235 257 216 250 254 250 253 264 271 228 217 226 276 291 271 227 156 110 116
303 302 303 307 308 309 309 307 301 299 294 293 288 290 275 210 228 80 136 156 215 347 272 240 275 308 7 28 332 332 340 271 359 258 253 287 218 223 235 246 242 249 251 252 261 220 232 241 258 266 270 181 169 162
309 308 309 302 309 311 309 306 302 299 289 287 269 209 230 139 115 128 104 172 171 211 225 256 251 260 237 29 311 318 10 291 291 244 268 231 250 256 312 316 301 308 308 303 291 292 288 333 328 4 349 189 192 195
307 308 310 303 308 310 311 310 310 314 291 181 236 3 69 142 216 221 207 209 147 236 212 230 229 238 97 201 241 192 304 220 269 298 279 287 277 354 339 332 345 337 334 319 305 273 269 123 198 186 215 168 181 179
304 306 304 299 302 305 304 308 315 308 32 322 293 263 212 215 220 255 213 142 223 246 187 231 234 206 122 106 152 207 269 287 256 7 282 260 337 325 316 314 321 323 320 304 22 60 30 13 220 164 192 160 162 130
303 301 296 294 295 295 293 297 304 288 296 213 217 252 200 210 236 228 213 197 218 200 210 197 212 144 151 186 186 214 235 245 328 243 252 274 289 318 310 309 305 310 320 300 56 58 43 111 188 206 209 157 153 158
302 299 295 291 286 280 279 277 289 311 268 239 226 262 220 203 228 220 13 299 34 28 324 304 283 165 141 178 198 230 240 253 246 243 258 271 304 305 302 291 306 321 294 335 328 346 327 193 209 182 135 162 162 162
306 300 295 291 272 257 247 247 250 270 267 252 222 239 228 246 316 339 326 302 24 295 349 345 302 142 174 230 188 84 38 310 272 284 281 355 334 325 316 326 334 28 75 30 38 43 19 99 98 67 313 107 102 97
316 302 234 189 28 299 226 264 227 228 234 236 234 260 278 304 299 230 265 322 33 343 308 185 274 311 232 322 55 43 7 277 273 315 26 354 332 332 337 337 355 117 140 133 92 67 32 49 83 115 288 97 95 104
307 241 93 30 319 283 242 233 197 223 247 226 238 224 244 250 260 281 100 331 349 299 326 96 325 281 354 75 110 161 218 244 339 12 47 26 348 343 349 347 11 115 102 47 19 39 104 348 66 99 75 61 80 84
247 207 170 1 350 290 167 211 251 228 238 254 271 282 303 277 318 51 29 81 294 3 305 298 176 315 326 344 37 353 293 193 4 77 76 26 352 351 344 352 11 25 145 192 186 308 307 4 45 44 49 73 91 94
279 298 301 310 323 299 256 204 232 262 252 261 258 258 285 207 68 10 36 11 329 305 302 283 77 138 216 211 208 231 262 14 13 350 114 80 9 351 343 359 0 13 31 35 39 106 77 61 18 338 13 25 63 324
275 269 267 266 251 256 256 266 194 251 268 277 296 273 303 97 133 64 296 239 263 264 229 239 108 137 157 112 55 18 358 345 337 341 185 115 28 347 354 352 350 351 34 44 45 40 85 94 284 13 42 61 77 321
290 236 183 159 202 223 279 281 242 247 283 257 276 280 188 168 176 157 213 231 247 37 169 62 102 83 66 47 54 0 62 14 1 2 345 151 121 291 316 323 320 310 76 39 36 26 33 67 92 51 46 45 28 11
286 317 241 186 262 203 248 239 244 275 275 272 281 287 347 359 357 304 157 183 175 233 34 95 91 141 129 56 32 350 67 354 32 80 130 131 128 332 332 347 2 1 32 93 125 105 55 22 34 78 96 81 59 55
294 209 232 229 252 227 256 252 238 219 237 259 244 181 164 173 239 272 248 105 131 93 100 97 89 84 128 171 115 92 59 52 84 102 124 138 210 154 281 275 283 299 312 80 146 157 157 176 262 14 142 127 88 71
188 263 250 230 200 259 262 233 239 249 225 240 249 232 213 190 161 227 137 27 100 112 116 145 152 155 159 159 77 107 109 286 141 143 183 199 199 231 227 256 305 281 89 84 25 342 104 150 47 124 76 36 155 149
246 258 164 263 254 231 250 245 241 7 343 297 262 259 170 208 227 58 45 310 283 133 152 161 209 184 170 110 135 141 167 208 258 192 169 183 135 46 271 212 248 217 153 92 153 234 244 131 112 128 138 88 106 116
240 227 186 234 210 217 266 294 277 206 232 266 36 323 283 231 101 240 196 236 247 147 169 173 204 141 158 167 187 171 192 211 238 250 238 175 195 206 183 316 91 360 312 114 165 210 221 159 163 171 117 118 97 151
242 247 216 219 255 231 287 265 248 274 317 171 230 256 100 191 153 192 208 206 213 143 227 168 162 177 191 156 181 170 163 192 225 227 241 203 227 189 159 181 169 145 132 110 287 296 34 40 77 232 132 111 85 70
246 270 256 234 231 183 244 279 317 51 308 309 47 57 308 41 51 153 196 134 124 138 206 178 105 52 131 139 183 165 155 175 70 44 20 356 341 158 141 115 92 78 58 42 78 78 68 25 101 82 53 191 86 69
237 242 244 263 262 268 281 3 357 242 237 116 162 213 236 348 3 107 117 127 131 173 212 161 158 181 146 176 219 170 128 146 136 121 130 235 275 238 125 145 115 154 143 97 62 79 62 82 63 26 57 105 107 95
241 236 250 266 274 256 230 176 301 328 338 283 89 73 333 265 237 115 130 145 163 203 204 172 186 204 187 187 208 186 149 175 209 194 185 194 123 104 133 127 145 120 216 155 155 155 203 208 202 224 109 127 117 124
230 228 238 239 248 174 185 51 282 286 279 120 91 102 113 270 182 157 171 161 184 201 187 192 200 203 154 137 147 246 162 169 96 67 31 112 102 93 122 154 140 151 163 98 37 149 169 193 163 180 78 54 58 146
223 253 246 249 263 180 132 205 221 351 305 282 123 109 168 162 249 257 176 160 198 196 216 241 239 234 149 164 150 183 228 139 138 146 163 128 133 153 176 128 111 141 159 194 212 126 125 114 102 138 147 178 225 194
17 159 258 289 250 226 233 323 8 322 97 50 11 339 342 150 230 243 144 167 199 201 222 180 261 104 87 103 140 155 200 134 118 124 116 103 104 100 67 101 138 139 172 56 54 125 21 150 140 151 197 240 195 153